Погода в Берувеле

Шри-Ланка     6°27′21″N   79°59′55″E
темп.,
°C
ветер,
м/с
пор.,
м/с
влажн.,
%
обл.,
%
осадки,
мм/ч
давл.,
гПа
погр.,
м
12 августа, пт
пт1223:30+26зюз1289100 0.4 1010152
02:30+26зсз2591100 1.2 1009272
05:30+26зсз359016 2.8 1009311
08:30+27зсз48829 0.6 1010873
11:30+28з58743 0.8 10101006
14:30+28з5773100 0.1 1007919
17:30+27з367983 0.1 1008814
20:30+26зюз1287100 0.1 101099
13 августа, сб
сб1323:30+26зюз1188100 0.7 101090
02:30+26з2489100 1.0 1008281
05:30+25з258773 2.4 1008303
08:30+27з46805 0.6 1010646
11:30+28з577487 1.0 1009950
14:30+28з577399 0.1 10071032
17:30+27з4780100 0.1 1007886
20:30+26з2487100 0.0 1009275
14 августа, вс
вс1423:30+26юз2488100 0.1 1009246
02:30+26зюз3688100 0.2 1007334
05:30+26з3688100 0.5 1008362
08:30+27зюз4779100 0.2 1010837
11:30+28з577276 0.3 10101160
14:30+28з5773100 0.1 10081043
17:30+27з4781100 0.1 1008852
20:30+26з2486100 0.1 1010275
15 августа, пн
пн1523:30+26зюз358763 0.3 1009267
02:30+26зюз368779 0.2 1008375
05:30+26зюз478783 0.7 1008418
08:30+27зюз357741 0.3 1010841
11:30+28зюз457260 0.4 1010930
14:30+28зюз457173 0.1 1008950
17:30+27зюз457894 0.2 1008665
20:30+27зюз4683100 0.1 1010369
16 августа, вт
вт1623:30+26зюз468698 0.3 1010452
02:30+26зюз468785 0.8 1009403
05:30+26юз368720 1.4 1009306
08:30+27зюз36805 0.4 1011628
11:30+28зюз457022 0.4 1011937
14:30+28зюз557220 0.1 1008873
17:30+27зюз447944 0.1 1008636
20:30+26зюз248648 0.1 1010228